Location: Central Falls
(41.8900°N, 71.3929°W)
Time: 07:57:44
(UTC+00:00)

Altair - Pass Details

Date: 14 December 2023
Orbit: 1501 x 1682 km, 47.2° (Epoch: 29 February)

Event Time Altitude Azimuth Distance (km) Brightness Sun altitude
Rises 09:12:16 0° 210° (SSW) 4,907 - -31.3°
Exits shadow 09:14:07 - 207° (SSW) 4,355 9.7 -30.9°
Reaches altitude 10° 09:15:38 10° 204° (SSW) 3,908 9.4 -30.6°
Maximum altitude 09:24:52 44° 137° (SE) 2,139 8.5 -28.9°
Drops below altitude 10° 09:33:49 10° 69° (ENE) 3,801 10.3 -27.3°
Sets 09:37:02 0° 64° (ENE) 4,763 10.9 -26.7°
